"Datum/tijd (MEZT)";"astronomisch [cm]";"verwachting RWS";"waterstand [cm]";"verwachte opzet";"opzet [cm]"
2024-05-06 07:00;20;49;30;29;10
2024-05-06 07:10;26;55;36;29;10
2024-05-06 07:20;32;60;41;28;9
2024-05-06 07:30;37;65;46;28;9
2024-05-06 07:40;42;69;51;27;9
2024-05-06 07:50;47;73;55;26;8
2024-05-06 08:00;52;77;59;25;7
2024-05-06 08:10;56;81;63;25;7
2024-05-06 08:20;61;85;67;24;6
2024-05-06 08:30;65;88;71;23;6
2024-05-06 08:40;69;92;76;23;7
2024-05-06 08:50;73;95;80;22;7
2024-05-06 09:00;76;98;84;22;8
2024-05-06 09:10;79;101;88;22;9
2024-05-06 09:20;82;103;92;21;10
2024-05-06 09:30;84;105;95;21;11
2024-05-06 09:40;86;106;97;20;11
2024-05-06 09:50;87;107;99;20;12
2024-05-06 10:00;87;108;101;21;14
2024-05-06 10:10;87;107;102;20;15
2024-05-06 10:20;85;106;101;21;16
2024-05-06 10:30;83;103;100;20;17
2024-05-06 10:40;80;100;98;20;18
2024-05-06 10:50;76;96;94;20;18
2024-05-06 11:00;72;90;91;18;19
2024-05-06 11:10;68;85;86;17;18
2024-05-06 11:20;62;78;81;16;19
2024-05-06 11:30;57;71;75;14;18
2024-05-06 11:40;51;64;68;13;17
2024-05-06 11:50;44;57;61;13;17
2024-05-06 12:00;38;49;53;11;15
2024-05-06 12:10;30;41;45;11;15
2024-05-06 12:20;23;32;38;9;15
2024-05-06 12:30;15;24;30;9;15
2024-05-06 12:40;7;15;22;8;15
2024-05-06 12:50;-2;7;14;9;16
2024-05-06 13:00;-11;-3;5;8;16
2024-05-06 13:10;-20;-12;-5;8;15
2024-05-06 13:20;-29;-22;-14;7;15
2024-05-06 13:30;-39;-32;-24;7;15
2024-05-06 13:40;-49;-41;-34;8;15
2024-05-06 13:50;-58;-50;-44;8;14
2024-05-06 14:00;-68;-59;-55;9;13
2024-05-06 14:10;-78;-67;-65;11;13
2024-05-06 14:20;-88;-76;-76;12;12
2024-05-06 14:30;-97;-84;-87;13;10
2024-05-06 14:40;-106;-91;-98;15;8
2024-05-06 14:50;-113;-97;-106;16;7
2024-05-06 15:00;-120;-103;-114;17;6
2024-05-06 15:10;-126;-109;-122;17;4
2024-05-06 15:20;-130;-114;-127;16;3
2024-05-06 15:30;-133;-118;-130;15;3
2024-05-06 15:40;-135;-121;-133;14;2
2024-05-06 15:50;-136;-122;-134;14;2
2024-05-06 16:00;-135;-123;-134;12;1
2024-05-06 16:10;-133;-122;-133;11;0
2024-05-06 16:20;-130;-118;-129;12;1
2024-05-06 16:30;-125;-113;-124;12;1
2024-05-06 16:40;-120;-107;-117;13;3
2024-05-06 16:50;-113;-100;-110;13;3
2024-05-06 17:00;-104;-92;-102;12;2
2024-05-06 17:10;-95;-82;-91;13;4
2024-05-06 17:20;-84;-69;-81;15;3
2024-05-06 17:30;-72;-55;-67;17;5
2024-05-06 17:40;-59;-39;-51;20;8
2024-05-06 17:50;-46;-22;-36;24;10
2024-05-06 18:00;-33;-7;-23;26;10
2024-05-06 18:10;-20;6;-11;26;9
2024-05-06 18:20;-7;18;3;25;10
2024-05-06 18:30;5;29;15;24;10
2024-05-06 18:40;16;39;26;23;10
2024-05-06 18:50;26;48;36;22;10
2024-05-06 19:00;36;64;45;28;9
2024-05-06 19:10;44;73;54;29;10
2024-05-06 19:20;52;81;63;29;11
2024-05-06 19:30;59;89;70;30;11
2024-05-06 19:40;66;96;76;30;10
2024-05-06 19:50;72;102;81;30;9
2024-05-06 20:00;78;108;87;30;9
2024-05-06 20:10;83;112;92;29;9
2024-05-06 20:20;89;117;98;28;9
2024-05-06 20:30;94;121;104;27;10
2024-05-06 20:40;98;125;111;27;13
2024-05-06 20:50;103;129;117;26;14
2024-05-06 21:00;107;133;121;26;14
2024-05-06 21:10;111;136;125;25;14
2024-05-06 21:20;114;140;129;26;15
2024-05-06 21:30;117;142;133;25;16
2024-05-06 21:40;119;145;135;26;16
2024-05-06 21:50;121;146;137;25;16
2024-05-06 22:00;122;147;138;25;16
2024-05-06 22:10;122;148;138;26;16
2024-05-06 22:20;122;146;137;24;15
2024-05-06 22:30;120;144;135;24;15
2024-05-06 22:40;117;140;132;23;15
2024-05-06 22:50;114;135;128;21;14
2024-05-06 23:00;109;130;124;21;15
2024-05-06 23:10;104;123;119;19;15
2024-05-06 23:20;99;116;114;17;15
2024-05-06 23:30;93;109;108;16;15
2024-05-06 23:40;86;101;101;15;15
2024-05-06 23:50;79;93;94;14;15
2024-05-07 00:00;72;85;86;12;14
2024-05-07 00:10;64;77;79;12;15
2024-05-07 00:20;56;69;71;12;15
2024-05-07 00:30;48;60;63;11;15
2024-05-07 00:40;40;52;56;11;16
2024-05-07 00:50;31;43;48;11;17
2024-05-07 01:00;22;33;40;11;18
2024-05-07 01:10;12;24;32;12;20
2024-05-07 01:20;3;15;23;12;20
2024-05-07 01:30;-7;5;14;12;21
2024-05-07 01:40;-17;-5;4;12;21
2024-05-07 01:50;-28;-15;-5;13;23
2024-05-07 02:00;-39;-25;-16;14;23
2024-05-07 02:10;-50;-36;-27;14;23
2024-05-07 02:20;-61;-47;-38;14;23
2024-05-07 02:30;-73;-57;-50;16;23
2024-05-07 02:40;-84;-67;-62;17;22
2024-05-07 02:50;-96;-77;-75;19;21
2024-05-07 03:00;-106;-86;-88;20;18
2024-05-07 03:10;-116;-94;-101;22;15
2024-05-07 03:20;-126;-102;-112;24;14
2024-05-07 03:30;-133;-110;-121;23;12
2024-05-07 03:40;-140;-117;-128;23;12
2024-05-07 03:50;-145;-122;-133;23;12
2024-05-07 04:00;-149;-127;-138;22;11
2024-05-07 04:10;-152;-131;-143;21;9
2024-05-07 04:20;-153;-134;-146;19;7
2024-05-07 04:30;-153;-136;-146;17;7
2024-05-07 04:40;-151;-137;-145;14;6
2024-05-07 04:50;-148;-136;-143;12;5
2024-05-07 05:00;-144;-132;-140;12;4
2024-05-07 05:10;-138;-128;-134;10;4
2024-05-07 05:20;-131;-121;-127;10;4
2024-05-07 05:30;-122;-113;-120;9;2
2024-05-07 05:40;-112;-102;-110;10;2
2024-05-07 05:50;-101;-89;-98;12;3
2024-05-07 06:00;-88;-74;;14;
2024-05-07 06:10;-75;-59;-68;17;7
2024-05-07 06:20;-62;-45;-53;18;9
2024-05-07 06:30;-49;-29;-41;21;8
2024-05-07 06:40;-36;-17;-30;20;6
2024-05-07 06:50;-24;-5;-19;20;5
2024-05-07 07:00;-13;10;-8;23;5
2024-05-07 07:10;-3;20;1;23;4
2024-05-07 07:20;6;30;11;24;5
2024-05-07 07:30;14;38;19;24;5
2024-05-07 07:40;21;46;25;25;4
2024-05-07 07:50;28;52;32;24;4
2024-05-07 08:00;34;58;38;24;4
2024-05-07 08:10;40;64;43;24;3
2024-05-07 08:20;45;69;48;24;3
2024-05-07 08:30;50;74;52;24;2
2024-05-07 08:40;55;78;57;23;2
2024-05-07 08:50;59;82;61;23;2
2024-05-07 09:00;64;86;65;22;1
2024-05-07 09:10;68;89;69;21;1
2024-05-07 09:20;72;93;73;21;1
2024-05-07 09:30;76;96;78;20;2
2024-05-07 09:40;80;100;82;20;2
2024-05-07 09:50;84;103;86;19;2
2024-05-07 10:00;87;105;91;18;4
2024-05-07 10:10;91;108;94;17;3
2024-05-07 10:20;93;109;97;16;4
2024-05-07 10:30;95;110;99;15;4
2024-05-07 10:40;96;111;101;15;5
2024-05-07 10:50;96;111;103;15;7
2024-05-07 11:00;95;110;103;15;8
2024-05-07 11:10;93;109;102;16;9
2024-05-07 11:20;91;106;100;15;9
2024-05-07 11:30;87;102;97;15;10
2024-05-07 11:40;83;97;94;14;11
2024-05-07 11:50;79;91;89;12;10
2024-05-07 12:00;73;85;84;12;11
2024-05-07 12:10;68;78;78;10;10
2024-05-07 12:20;62;70;71;8;9
2024-05-07 12:30;55;63;64;8;9
2024-05-07 12:40;48;55;57;7;9
2024-05-07 12:50;41;47;49;6;8
2024-05-07 13:00;33;38;42;5;9
2024-05-07 13:10;25;29;34;4;9
2024-05-07 13:20;16;21;26;5;10
2024-05-07 13:30;8;11;17;3;9
2024-05-07 13:40;-1;2;9;3;10
2024-05-07 13:50;-10;-8;-1;2;9
2024-05-07 14:00;-20;-18;-9;2;11
2024-05-07 14:10;-29;-28;-19;1;10
2024-05-07 14:20;-39;-38;-29;1;10
2024-05-07 14:30;-50;-48;;2;
2024-05-07 14:40;-60;-58;-52;2;8
2024-05-07 14:50;-71;-67;-64;4;7
2024-05-07 15:00;-81;-77;-77;4;4
2024-05-07 15:10;-92;-85;-89;7;3
2024-05-07 15:20;-102;-94;-101;8;1
2024-05-07 15:30;-111;-101;-114;10;-3
2024-05-07 15:40;-120;-108;-124;12;-4
2024-05-07 15:50;-127;-115;-130;12;-3
2024-05-07 16:00;-133;-121;-135;12;-2
2024-05-07 16:10;-138;-127;-138;11;0
2024-05-07 16:20;-142;-132;-144;10;-2
2024-05-07 16:30;-144;-135;-148;9;-4
2024-05-07 16:40;-145;-138;-149;7;-4
2024-05-07 16:50;-145;-140;-150;5;-5
2024-05-07 17:00;-144;-140;-147;4;-3
2024-05-07 17:10;-141;-138;-144;3;-3
2024-05-07 17:20;-137;-133;-140;4;-3
2024-05-07 17:30;-132;-127;-136;5;-4
2024-05-07 17:40;-125;-120;-129;5;-4
2024-05-07 17:50;-116;-111;-120;5;-4
2024-05-07 18:00;-106;-100;-108;6;-2
2024-05-07 18:10;-94;-86;-94;8;0
2024-05-07 18:20;-81;-70;-79;11;2
2024-05-07 18:30;-67;-52;-62;15;5
2024-05-07 18:40;-52;-36;-45;16;7
2024-05-07 18:50;-37;-18;-31;19;6
2024-05-07 19:00;-23;-1;-19;22;4
2024-05-07 19:10;-9;14;-6;23;3
2024-05-07 19:20;3;26;8;23;5
2024-05-07 19:30;15;37;20;22;5
2024-05-07 19:40;26;47;29;21;3
2024-05-07 19:50;35;56;38;21;3
2024-05-07 20:00;44;65;47;21;3
2024-05-07 20:10;52;73;57;21;5
2024-05-07 20:20;59;81;63;22;4
2024-05-07 20:30;66;88;70;22;4
2024-05-07 20:40;72;94;76;22;4
2024-05-07 20:50;78;99;80;21;2
2024-05-07 21:00;83;104;85;21;2
2024-05-07 21:10;89;107;89;18;0
2024-05-07 21:20;94;111;94;17;0
2024-05-07 21:30;98;114;101;16;3
2024-05-07 21:40;103;117;106;14;3
2024-05-07 21:50;107;119;112;12;5
2024-05-07 22:00;111;121;116;10;5
2024-05-07 22:10;115;123;120;8;5
2024-05-07 22:20;118;125;123;7;5
2024-05-07 22:30;121;127;126;6;5
2024-05-07 22:40;123;128;128;5;5
2024-05-07 22:50;124;129;129;5;5
2024-05-07 23:00;125;128;129;3;4
2024-05-07 23:10;124;127;128;3;4
2024-05-07 23:20;122;124;126;2;4
2024-05-07 23:30;119;120;123;1;4
2024-05-07 23:40;116;116;120;0;4
2024-05-07 23:50;111;110;116;-1;5
2024-05-08 00:00;106;105;111;-1;5
2024-05-08 00:10;100;98;104;-2;4
2024-05-08 00:20;94;92;98;-2;4
2024-05-08 00:30;87;84;91;-3;4
2024-05-08 00:40;79;77;82;-2;3
2024-05-08 00:50;72;69;73;-3;1
2024-05-08 01:00;64;62;65;-2;1
2024-05-08 01:10;56;54;58;-2;2
2024-05-08 01:20;47;46;50;-1;3
2024-05-08 01:30;39;38;42;-1;3
2024-05-08 01:40;30;29;35;-1;5
2024-05-08 01:50;21;21;27;0;6
2024-05-08 02:00;12;12;19;0;7
2024-05-08 02:10;3;4;10;1;7
2024-05-08 02:20;-7;-6;1;1;8
2024-05-08 02:30;-17;-15;-8;2;9
2024-05-08 02:40;-27;-25;-19;2;8
2024-05-08 02:50;-38;-36;-30;2;8
2024-05-08 03:00;-50;-46;-42;4;8
2024-05-08 03:10;-61;-57;-55;4;6
2024-05-08 03:20;-73;-68;-68;5;5
2024-05-08 03:30;-85;-78;-82;7;3
2024-05-08 03:40;-96;-88;-95;8;1
2024-05-08 03:50;-107;-98;-107;9;0
2024-05-08 04:00;-117;-107;-118;10;-1
2024-05-08 04:10;-126;-115;-126;11;0
2024-05-08 04:20;-134;-123;-132;11;2
2024-05-08 04:30;-140;-130;-139;10;1
2024-05-08 04:40;-145;-135;-144;10;1
2024-05-08 04:50;-149;-140;-149;9;0
2024-05-08 05:00;-151;-144;-156;7;-5
2024-05-08 05:10;-153;-147;-158;6;
2024-05-08 05:20;-153;-149;;4;
2024-05-08 05:30;-151;-149;;2;
2024-05-08 05:40;-148;-146;;2;
2024-05-08 05:50;-144;-143;;1;
2024-05-08 06:00;-138;-137;;1;
2024-05-08 06:10;-130;-130;;0;
2024-05-08 06:20;-120;-120;;0;
2024-05-08 06:30;-109;-108;;1;
2024-05-08 06:40;-96;-94;;2;
2024-05-08 06:50;-82;-77;;5;
2024-05-08 07:00;-68;-59;;9;
2024-05-08 07:10;-54;-44;;10;
2024-05-08 07:20;-40;-29;;11;
2024-05-08 07:30;-27;-16;;11;
2024-05-08 07:40;-14;-4;;10;
2024-05-08 07:50;-3;6;;9;
2024-05-08 08:00;7;15;;8;
2024-05-08 08:10;16;23;;7;
2024-05-08 08:20;24;30;;6;
2024-05-08 08:30;31;37;;6;
2024-05-08 08:40;37;43;;6;
2024-05-08 08:50;43;49;;6;
2024-05-08 09:00;49;55;;6;
2024-05-08 09:10;54;61;;7;
2024-05-08 09:20;59;67;;8;
2024-05-08 09:30;63;73;;10;
2024-05-08 09:40;68;78;;10;
2024-05-08 09:50;72;83;;11;
2024-05-08 10:00;77;89;;12;
2024-05-08 10:10;81;93;;12;
2024-05-08 10:20;85;97;;12;
2024-05-08 10:30;89;101;;12;
2024-05-08 10:40;93;104;;11;
2024-05-08 10:50;96;106;;10;
2024-05-08 11:00;99;107;;8;
2024-05-08 11:10;101;108;;7;
2024-05-08 11:20;102;108;;6;
2024-05-08 11:30;103;107;;4;
2024-05-08 11:40;102;106;;4;
2024-05-08 11:50;101;104;;3;
2024-05-08 12:00;98;100;;2;
2024-05-08 12:10;95;96;;1;
2024-05-08 12:20;91;90;;-1;
2024-05-08 12:30;86;84;;-2;
2024-05-08 12:40;81;78;;-3;
2024-05-08 12:50;75;70;;-5;
2024-05-08 13:00;69;63;;-6;
2024-05-08 13:10;62;55;;-7;
2024-05-08 13:20;55;48;;-7;
2024-05-08 13:30;47;40;;-7;
2024-05-08 13:40;39;32;;-7;
2024-05-08 13:50;31;24;;-7;
2024-05-08 14:00;22;16;;-6;
2024-05-08 14:10;14;7;;-7;
2024-05-08 14:20;5;-2;;-7;
2024-05-08 14:30;-4;-11;;-7;
2024-05-08 14:40;-13;-20;;-7;
2024-05-08 14:50;-23;-30;;-7;
2024-05-08 15:00;-33;-40;;-7;
2024-05-08 15:10;-43;-49;;-6;
2024-05-08 15:20;-54;-59;;-5;
2024-05-08 15:30;-65;-69;;-4;
2024-05-08 15:40;-76;-79;;-3;
2024-05-08 15:50;-87;-89;;-2;
2024-05-08 16:00;-98;-98;;0;
2024-05-08 16:10;-108;-107;;1;
2024-05-08 16:20;-118;-115;;3;
2024-05-08 16:30;-126;-123;;3;
2024-05-08 16:40;-134;-130;;4;
2024-05-08 16:50;-140;-136;;4;
2024-05-08 17:00;-145;-142;;3;
2024-05-08 17:10;-148;-147;;1;
2024-05-08 17:20;-151;-151;;0;
2024-05-08 17:30;-152;-154;;-2;
2024-05-08 17:40;-152;-156;;-4;
2024-05-08 17:50;-151;-156;;-5;
2024-05-08 18:00;-148;-155;;-7;
2024-05-08 18:10;-144;-151;;-7;
2024-05-08 18:20;-138;-145;;-7;
2024-05-08 18:30;-131;-137;;-6;
2024-05-08 18:40;-121;-128;;-7;
2024-05-08 18:50;-110;-117;;-7;
2024-05-08 19:00;-97;-104;;-7;
2024-05-08 19:10;-83;-88;;-5;
2024-05-08 19:20;-68;-68;;0;
2024-05-08 19:30;-53;-47;;6;
2024-05-08 19:40;-37;-30;;7;
2024-05-08 19:50;-23;-14;;9;
2024-05-08 20:00;-9;-1;;8;
2024-05-08 20:10;3;12;;9;
2024-05-08 20:20;15;23;;8;
2024-05-08 20:30;25;32;;7;
2024-05-08 20:40;34;41;;7;
2024-05-08 20:50;43;48;;5;
2024-05-08 21:00;50;55;;5;
2024-05-08 21:10;58;62;;4;
2024-05-08 21:20;64;68;;4;
2024-05-08 21:30;70;75;;5;
2024-05-08 21:40;76;80;;4;
2024-05-08 21:50;82;86;;4;
2024-05-08 22:00;87;90;;3;
2024-05-08 22:10;92;95;;3;
2024-05-08 22:20;97;100;;3;
2024-05-08 22:30;101;104;;3;
2024-05-08 22:40;106;108;;2;
2024-05-08 22:50;110;111;;1;
2024-05-08 23:00;113;114;;1;
2024-05-08 23:10;117;116;;-1;
2024-05-08 23:20;119;118;;-1;
2024-05-08 23:30;121;119;;-2;
2024-05-08 23:40;123;119;;-4;
2024-05-08 23:50;123;119;;-4;
2024-05-09 00:00;122;117;;-5;
2024-05-09 00:10;120;115;;-5;
2024-05-09 00:20;117;111;;-6;
2024-05-09 00:30;113;106;;-7;
2024-05-09 00:40;108;101;;-7;
2024-05-09 00:50;103;95;;-8;
2024-05-09 01:00;97;88;;-9;
2024-05-09 01:10;90;81;;-9;
2024-05-09 01:20;83;74;;-9;
2024-05-09 01:30;75;66;;-9;
2024-05-09 01:40;68;58;;-10;
2024-05-09 01:50;59;50;;-9;
2024-05-09 02:00;51;42;;-9;
2024-05-09 02:10;43;34;;-9;
2024-05-09 02:20;34;26;;-8;
2024-05-09 02:30;25;18;;-7;
2024-05-09 02:40;17;10;;-7;
2024-05-09 02:50;8;1;;-7;
2024-05-09 03:00;-1;-9;;-8;
2024-05-09 03:10;-11;-18;;-7;
2024-05-09 03:20;-21;-28;;-7;
2024-05-09 03:30;-31;-39;;-8;
2024-05-09 03:40;-42;-49;;-7;
2024-05-09 03:50;-54;-59;;-5;
2024-05-09 04:00;-65;-70;;-5;
2024-05-09 04:10;-77;-80;;-3;
2024-05-09 04:20;-89;-90;;-1;
2024-05-09 04:30;-100;-100;;0;
2024-05-09 04:40;-111;-109;;2;
2024-05-09 04:50;-120;-117;;3;
2024-05-09 05:00;-128;-125;;3;
2024-05-09 05:10;-135;-132;;3;
2024-05-09 05:20;-141;-138;;3;
2024-05-09 05:30;-145;-144;;1;
2024-05-09 05:40;-148;-148;;0;
2024-05-09 05:50;-150;-152;;-2;
2024-05-09 06:00;-150;-154;;-4;
2024-05-09 06:10;-150;-155;;-5;
2024-05-09 06:20;-148;-154;;-6;
2024-05-09 06:30;-144;-150;;-6;
2024-05-09 06:40;-139;-145;;-6;
2024-05-09 06:50;-131;-138;;-7;
2024-05-09 07:00;-122;-130;;-8;
2024-05-09 07:10;-111;-120;;-9;
2024-05-09 07:20;-99;-107;;-8;
2024-05-09 07:30;-85;-90;;-5;
2024-05-09 07:40;-70;-72;;-2;
2024-05-09 07:50;-56;-51;;5;
2024-05-09 08:00;-41;-35;;6;
2024-05-09 08:10;-28;-19;;9;
2024-05-09 08:20;-15;-7;;8;
2024-05-09 08:30;-3;5;;8;
2024-05-09 08:40;7;15;;8;
2024-05-09 08:50;17;24;;7;
2024-05-09 09:00;25;32;;7;
2024-05-09 09:10;33;39;;6;
2024-05-09 09:20;40;46;;6;
2024-05-09 09:30;46;52;;6;
2024-05-09 09:40;52;59;;7;
2024-05-09 09:50;57;65;;8;
2024-05-09 10:00;63;71;;8;
2024-05-09 10:10;68;76;;8;
2024-05-09 10:20;73;82;;9;
2024-05-09 10:30;77;87;;10;
2024-05-09 10:40;82;92;;10;
2024-05-09 10:50;86;96;;10;
2024-05-09 11:00;90;100;;10;
2024-05-09 11:10;94;104;;10;
2024-05-09 11:20;98;107;;9;
2024-05-09 11:30;101;110;;9;
2024-05-09 11:40;104;112;;8;
2024-05-09 11:50;106;113;;7;
2024-05-09 12:00;108;113;;5;
2024-05-09 12:10;108;113;;5;
2024-05-09 12:20;108;112;;4;
2024-05-09 12:30;107;110;;3;
2024-05-09 12:40;104;107;;3;
2024-05-09 12:50;101;103;;2;
2024-05-09 13:00;97;98;;1;
2024-05-09 13:10;93;92;;-1;
2024-05-09 13:20;87;85;;-2;
2024-05-09 13:30;81;78;;-3;
2024-05-09 13:40;75;71;;-4;
2024-05-09 13:50;68;63;;-5;
2024-05-09 14:00;61;55;;-6;
2024-05-09 14:10;53;48;;-5;
2024-05-09 14:20;45;40;;-5;
2024-05-09 14:30;36;32;;-4;
2024-05-09 14:40;28;24;;-4;
2024-05-09 14:50;19;16;;-3;
2024-05-09 15:00;10;8;;-2;
2024-05-09 15:10;2;0;;-2;
2024-05-09 15:20;-8;-9;;-1;
2024-05-09 15:30;-17;-18;;-1;
2024-05-09 15:40;-27;-28;;-1;
2024-05-09 15:50;-37;-38;;-1;
2024-05-09 16:00;-48;-48;;0;
2024-05-09 16:10;-60;-58;;2;
2024-05-09 16:20;-71;-68;;3;
2024-05-09 16:30;-83;-78;;5;
2024-05-09 16:40;-95;-88;;7;
2024-05-09 16:50;-106;-97;;9;
2024-05-09 17:00;-116;-106;;10;
2024-05-09 17:10;-126;-115;;11;
2024-05-09 17:20;-134;-123;;11;
2024-05-09 17:30;-141;-130;;11;
2024-05-09 17:40;-146;-135;;11;
2024-05-09 17:50;-150;-140;;10;
2024-05-09 18:00;-153;-143;;11;
2024-05-09 18:10;-156;-144;;12;
2024-05-09 18:20;-156;-144;;12;
2024-05-09 18:30;-156;-142;;14;
2024-05-09 18:40;-154;-140;;14;
2024-05-09 18:50;-151;-136;;15;
2024-05-09 19:00;-146;-133;;13;
2024-05-09 19:10;-139;-127;;12;
2024-05-09 19:20;-131;-119;;12;
2024-05-09 19:30;-120;-109;;11;
2024-05-09 19:40;-108;-97;;11;
2024-05-09 19:50;-94;-83;;11;
2024-05-09 20:00;-79;-66;;13;
2024-05-09 20:10;-64;-48;;16;
2024-05-09 20:20;-49;-32;;17;
2024-05-09 20:30;-35;-20;;15;
2024-05-09 20:40;-21;-9;;12;
2024-05-09 20:50;-8;1;;9;
2024-05-09 21:00;4;10;;6;
2024-05-09 21:10;14;20;;6;
2024-05-09 21:20;24;29;;5;
2024-05-09 21:30;32;38;;6;
2024-05-09 21:40;40;48;;8;
2024-05-09 21:50;48;57;;9;
2024-05-09 22:00;54;66;;12;
2024-05-09 22:10;61;73;;12;
2024-05-09 22:20;67;80;;13;
2024-05-09 22:30;73;87;;14;
2024-05-09 22:40;78;93;;15;
2024-05-09 22:50;83;98;;15;
2024-05-09 23:00;88;102;;14;
2024-05-09 23:10;93;105;;12;
2024-05-09 23:20;97;108;;11;
2024-05-09 23:30;101;111;;10;
2024-05-09 23:40;105;113;;8;
2024-05-09 23:50;109;116;;7;
2024-05-10 00:00;112;118;;6;
2024-05-10 00:10;114;120;;6;
2024-05-10 00:20;116;122;;6;
2024-05-10 00:30;117;123;;6;
2024-05-10 00:40;117;124;;7;
2024-05-10 00:50;115;123;;8;
2024-05-10 01:00;113;121;;8;
2024-05-10 01:10;110;118;;8;
2024-05-10 01:20;106;114;;8;
2024-05-10 01:30;101;109;;8;
2024-05-10 01:40;96;103;;7;
2024-05-10 01:50;90;97;;7;
2024-05-10 02:00;83;91;;8;
2024-05-10 02:10;76;84;;8;
2024-05-10 02:20;69;77;;8;
2024-05-10 02:30;61;70;;9;
2024-05-10 02:40;53;63;;10;
2024-05-10 02:50;44;56;;12;
2024-05-10 03:00;36;49;;13;
2024-05-10 03:10;28;42;;14;
2024-05-10 03:20;19;34;;15;
2024-05-10 03:30;11;27;;16;
2024-05-10 03:40;2;19;;17;
2024-05-10 03:50;-7;10;;17;
2024-05-10 04:00;-17;3;;20;
2024-05-10 04:10;-27;-7;;20;
2024-05-10 04:20;-38;-17;;21;
2024-05-10 04:30;-49;-28;;21;
2024-05-10 04:40;-61;-39;;22;
2024-05-10 04:50;-73;-51;;22;
2024-05-10 05:00;-85;-62;;23;
2024-05-10 05:10;-96;-74;;22;
2024-05-10 05:20;-107;-85;;22;
2024-05-10 05:30;-116;-95;;21;
2024-05-10 05:40;-125;-105;;20;
2024-05-10 05:50;-132;-113;;19;
2024-05-10 06:00;-137;-120;;17;
2024-05-10 06:10;-141;-125;;16;
2024-05-10 06:20;-145;-129;;16;
2024-05-10 06:30;-146;-132;;14;
2024-05-10 06:40;-147;-133;;14;
2024-05-10 06:50;-146;-132;;14;
2024-05-10 07:00;-145;-130;;15;
2024-05-10 07:10;-141;-128;;13;
2024-05-10 07:20;-136;-123;;13;
2024-05-10 07:30;-129;-117;;12;
2024-05-10 07:40;-120;-108;;12;
2024-05-10 07:50;-109;-98;;11;
2024-05-10 08:00;-97;-86;;11;
2024-05-10 08:10;-84;-72;;12;
2024-05-10 08:20;-69;-55;;14;
2024-05-10 08:30;-55;-41;;14;
2024-05-10 08:40;-41;-29;;12;
2024-05-10 08:50;-27;-18;;9;
2024-05-10 09:00;-14;-9;;5;
2024-05-10 09:10;-2;0;;2;
2024-05-10 09:20;8;9;;1;
2024-05-10 09:30;18;17;;-1;
2024-05-10 09:40;27;25;;-2;
2024-05-10 09:50;34;33;;-1;
2024-05-10 10:00;42;41;;-1;
2024-05-10 10:10;48;49;;1;
2024-05-10 10:20;54;56;;2;
2024-05-10 10:30;60;63;;3;
2024-05-10 10:40;66;70;;4;
2024-05-10 10:50;71;76;;5;
2024-05-10 11:00;76;81;;5;
2024-05-10 11:10;81;86;;5;
2024-05-10 11:20;86;90;;4;
2024-05-10 11:30;90;94;;4;
2024-05-10 11:40;94;97;;3;
2024-05-10 11:50;98;99;;1;
2024-05-10 12:00;102;102;;0;
2024-05-10 12:10;105;103;;-2;
2024-05-10 12:20;108;105;;-3;
2024-05-10 12:30;110;107;;-3;
2024-05-10 12:40;112;108;;-4;
2024-05-10 12:50;112;109;;-3;
2024-05-10 13:00;112;109;;-3;
2024-05-10 13:10;111;108;;-3;
2024-05-10 13:20;108;106;;-2;
2024-05-10 13:30;105;103;;-2;
2024-05-10 13:40;101;99;;-2;
2024-05-10 13:50;97;94;;-3;
2024-05-10 14:00;91;88;;-3;
2024-05-10 14:10;86;82;;-4;
2024-05-10 14:20;79;76;;-3;
2024-05-10 14:30;72;69;;-3;
2024-05-10 14:40;65;62;;-3;
2024-05-10 14:50;57;55;;-2;
2024-05-10 15:00;49;48;;-1;
2024-05-10 15:10;41;40;;-1;
2024-05-10 15:20;33;33;;0;
2024-05-10 15:30;24;25;;1;
2024-05-10 15:40;15;17;;2;
2024-05-10 15:50;6;10;;4;
2024-05-10 16:00;-3;1;;4;
2024-05-10 16:10;-12;-8;;4;
2024-05-10 16:20;-22;-18;;4;
2024-05-10 16:30;-33;-29;;4;
2024-05-10 16:40;-44;-40;;4;
2024-05-10 16:50;-55;-51;;4;
2024-05-10 17:00;-67;-62;;5;
2024-05-10 17:10;-80;-74;;6;
2024-05-10 17:20;-92;-85;;7;
2024-05-10 17:30;-103;-96;;7;
2024-05-10 17:40;-114;-106;;8;
2024-05-10 17:50;-124;-115;;9;
2024-05-10 18:00;-133;-124;;9;
2024-05-10 18:10;-140;-131;;9;
2024-05-10 18:20;-146;-138;;8;
2024-05-10 18:30;-151;-143;;8;
2024-05-10 18:40;-154;-147;;7;
2024-05-10 18:50;-157;-150;;7;
2024-05-10 19:00;-158;-151;;7;
2024-05-10 19:10;-158;-150;;8;
2024-05-10 19:20;-156;-149;;7;
2024-05-10 19:30;-153;-147;;6;
2024-05-10 19:40;-149;-143;;6;
2024-05-10 19:50;-143;-138;;5;
2024-05-10 20:00;-135;-130;;5;
2024-05-10 20:10;-125;-121;;4;
2024-05-10 20:20;-113;-110;;3;
2024-05-10 20:30;-100;-96;;4;
2024-05-10 20:40;-86;-80;;6;
2024-05-10 20:50;-72;-63;;9;
2024-05-10 21:00;-58;-46;;12;
2024-05-10 21:10;-44;-33;;11;
2024-05-10 21:20;-30;-22;;8;
2024-05-10 21:30;-18;-12;;6;
2024-05-10 21:40;-6;-3;;3;
2024-05-10 21:50;4;7;;3;
2024-05-10 22:00;13;14;;1;
2024-05-10 22:10;22;23;;1;
2024-05-10 22:20;30;31;;1;
2024-05-10 22:30;37;40;;3;
2024-05-10 22:40;44;48;;4;
2024-05-10 22:50;51;56;;5;
2024-05-10 23:00;57;63;;6;
2024-05-10 23:10;63;69;;6;
2024-05-10 23:20;68;75;;7;
2024-05-10 23:30;73;80;;7;
2024-05-10 23:40;78;84;;6;
2024-05-10 23:50;83;88;;5;
2024-05-11 00:00;87;91;;4;
2024-05-11 00:10;91;94;;3;
2024-05-11 00:20;95;96;;1;
2024-05-11 00:30;99;98;;-1;
2024-05-11 00:40;102;99;;-3;
2024-05-11 00:50;104;101;;-3;
2024-05-11 01:00;106;102;;-4;
2024-05-11 01:10;107;103;;-4;
2024-05-11 01:20;107;104;;-3;
2024-05-11 01:30;107;104;;-3;
2024-05-11 01:40;105;103;;-2;
2024-05-11 01:50;103;101;;-2;
2024-05-11 02:00;100;98;;-2;
2024-05-11 02:10;96;94;;-2;
2024-05-11 02:20;91;89;;-2;
2024-05-11 02:30;86;84;;-2;
2024-05-11 02:40;80;78;;-2;
2024-05-11 02:50;73;72;;-1;
2024-05-11 03:00;67;65;;-2;
2024-05-11 03:10;59;59;;0;
2024-05-11 03:20;52;52;;0;
2024-05-11 03:30;44;45;;1;
2024-05-11 03:40;36;38;;2;
2024-05-11 03:50;27;31;;4;
2024-05-11 04:00;19;24;;5;
2024-05-11 04:10;11;17;;6;
2024-05-11 04:20;2;10;;8;
2024-05-11 04:30;-7;1;;8;
2024-05-11 04:40;-16;-8;;8;
2024-05-11 04:50;-26;-17;;9;
2024-05-11 05:00;-37;-27;;10;
2024-05-11 05:10;-48;-38;;10;
2024-05-11 05:20;-60;-49;;11;
2024-05-11 05:30;-71;-60;;11;
2024-05-11 05:40;-83;-71;;12;
2024-05-11 05:50;-94;-82;;12;
2024-05-11 06:00;-105;-92;;13;
2024-05-11 06:10;-114;-101;;13;
2024-05-11 06:20;-122;-110;;12;
2024-05-11 06:30;-129;-117;;12;
2024-05-11 06:40;-134;-124;;10;
2024-05-11 06:50;-138;-129;;9;
2024-05-11 07:00;-141;-132;;9;
  </body>
</html>
